Location: Horowhenua
(40.7500°S, 175.3333°E)
Time: 05:17:29
(UTC+00:00)

Cosmos 2056 Rocket - Pass Details

Date: 28 January 2023
Orbit: 742 x 799 km, 74.0° (Epoch: 01 April)

Event Time Altitude Azimuth Distance (km) Brightness Sun altitude
Rises 16:16:29 0° 211° (SSW) 3,308 6.9 -11.4°
Reaches altitude 10° 16:19:09 10° 221° (SW) 2,380 6.0 -11.0°
Maximum altitude 16:23:45 29° 279° (W) 1,437 4.4 -10.2°
Drops below altitude 10° 16:28:21 10° 338° (NNW) 2,373 5.5 -9.5°
Enters shadow 16:30:38 - 347° (NNW) 3,158 6.2 -9.2°
